Flag for Germany Weather past 2 weeks in Rodgau, Hesse, Germany

Now
86 °F

Partly sunny.


Feels Like: 89 °F
Forecast: 70 / 96 °F
Wind: 2 mph from Southwest

Location: Frankfurt / M-Flughafen

Current Time: Jul 4, 2015 at 10:47:13 AM

Latest Report: Jul 4, 2015 at 10:00 AM


Visibility: 16 mi

Pressure: 30.10 "Hg

Humidity: 50%

Dew point: 66 °F

Location of RodgauLocation

Historic Weather in Rodgau — Graph

°F

Rodgau temperature yesterday

Maximum temperature yesterday: 96 °F (at 6:00 PM)
Minimum temperature yesterday: 72 °F (at 4:00 AM)
Average temperature yesterday: 84 °F

Past Weeks' High & Low Weather Summary

 TemperatureHumidityPressure
High96 °F (Jul 3, 6:00 PM)100% (Jun 22, 2:00 AM)30.23 "Hg (Jun 22, 2:00 AM)
Low49 °F (Jun 23, 6:00 AM)21% (Jun 30, 7:00 PM)29.70 "Hg (Jun 22, 11:00 PM)
Average67 °F67%30.09 "Hg
* Reported Jun 19 9:00 AM — Jul 4 9:00 AM, Rodgau, Weather by CustomWeather, © 2015

Note: Actual official high and low records may vary slightly from our data, if they occured in-between our weather recording intervals... More about our weather records

Advertising

Rodgau weather history for previous 24 hours

 ConditionsComfort  
Time TempWeatherWind HumidityBarometerVisibility
9:00 AM
Sat, Jul 4
83 °FOvercast.1 mph57%30.10 "Hg16 mi
8:00 AM80 °FOvercast.2 mph63%30.11 "Hg16 mi
7:00 AM76 °FOvercast.3 mph73%30.11 "Hg16 mi
6:00 AM75 °FScattered clouds.3 mph76%30.11 "Hg19 mi
4:00 AM75 °FClear.2 mph74%30.11 "Hg16 mi
3:00 AM75 °FClear.2 mph72%30.12 "Hg16 mi
2:00 AM79 °FClear.2 mph61%30.12 "Hg19 mi
1:00 AM77 °FPassing clouds.2 mph68%30.13 "Hg19 mi
12:00 AM77 °FPassing clouds.1 mph68%30.14 "Hg19 mi
10:00 PM
Fri, Jul 3
83 °FPassing clouds.2 mph54%30.13 "Hg22 mi
9:00 PM87 °FPassing clouds.1 mph45%30.13 "Hg25 mi
8:00 PM94 °FScattered clouds.2 mph34%30.11 "Hg11 mi
7:00 PM95 °FScattered clouds.2 mph26%30.12 "Hg11 mi
6:00 PM96 °FScattered clouds.2 mph28%30.12 "Hg11 mi
4:00 PM94 °FPassing clouds.2 mph30%30.16 "Hg11 mi
3:00 PM94 °FPassing clouds.3 mph36%30.16 "Hg12 mi
2:00 PM91 °FPassing clouds.2 mph38%30.18 "Hg12 mi
1:00 PM89 °FPassing clouds.3 mph42%30.19 "Hg12 mi
12:00 PM89 °FPassing clouds.3 mph47%30.20 "Hg12 mi
10:00 AM82 °FPassing clouds.2 mph57%30.20 "Hg14 mi
Weather by CustomWeather, © 2015

See weather overviewHow to use our weather pages